Temp
0 0 0 1 1 1 2 2 2 3 3 3 4 4 4 4 4 4 5 5 5 6 6 6 7 7 7 6 7 8 9 10 8 10 10 9 10 10 11 11 11 11 11 10 9 10 13 11 12 13 13 11 12 10
0 0 0 1 1 1 1 2 2 2 3 3 3 3 4 4 4 3 3 3 4 4 5 6 7 7 7 7 7 7 7 8 9 9 8 8 9 8 9 11 9 10 11 11 11 12 11 11 12 14 13 12 11 12
0 0 0 0 0 1 1 2 2 2 2 3 3 3 3 4 3 3 3 3 4 4 4 5 6 7 7 7 7 7 7 9 7 7 7 7 7 8 8 9 10 9 8 8 9 11 10 11 12 12 12 13 11 12
-0 0 -0 0 0 1 1 1 2 2 2 3 3 3 3 3 4 3 3 3 3 4 4 5 6 6 6 6 7 7 7 8 7 7 6 4 7 7 6 6 8 10 10 8 8 9 9 10 10 11 11 12 11 11
-0 -0 -0 -0 -0 0 1 1 1 1 2 2 2 2 3 3 3 3 3 3 3 4 4 5 6 6 6 6 7 7 6 6 6 8 3 6 6 6 3 4 7 9 10 9 9 10 10 10 11 10 11 11 11 11
-0 -1 -1 -0 -0 0 1 1 1 1 1 2 2 2 3 3 3 3 3 3 4 3 4 4 5 6 5 5 6 7 7 5 6 7 5 5 6 7 6 6 8 8 9 9 10 11 11 10 10 10 10 10 9 9
-1 -1 -1 -0 -0 0 1 1 1 1 0 1 2 3 2 2 3 3 3 4 4 4 4 4 3 4 5 5 5 4 5 5 6 7 5 5 5 7 4 7 7 7 7 9 8 8 7 7 8 8 8 8 7 7
-1 -1 -1 -1 -1 -0 1 1 1 1 -0 0 2 2 2 2 2 3 4 4 3 3 4 2 3 3 5 5 5 5 5 6 5 5 4 5 4 5 5 8 7 7 7 7 8 9 9 8 7 7 7 7 6 6
-1 -1 -1 -1 -1 -0 1 1 2 1 1 0 1 2 2 2 2 2 3 3 3 3 3 1 3 4 4 4 4 5 5 3 4 3 4 6 4 5 7 7 7 6 7 7 7 7 6 7 6 6 6 6 6 5
-2 -1 -1 -0 -0 0 1 2 1 1 1 1 1 2 1 2 2 2 3 2 3 3 2 2 2 3 4 3 3 4 4 3 5 4 3 4 6 4 5 6 7 6 7 7 7 5 6 6 6 6 6 5 5 4
-1 -1 -1 -0 -0 1 1 2 1 1 1 1 2 2 2 2 2 2 2 1 2 1 2 2 3 2 3 3 2 2 2 3 5 5 5 5 6 3 4 5 5 5 6 6 7 7 7 7 6 5 4 4 3 3
-2 -2 -1 -1 -0 1 1 1 1 1 1 2 2 1 1 2 1 1 1 0 1 2 1 1 2 4 3 3 2 1 2 1 6 2 4 5 4 1 2 3 4 4 4 6 6 6 5 5 4 4 3 3 2 1
-2 -1 0 1 1 1 1 1 1 1 1 1 2 1 1 -0 1 2 0 2 1 1 1 2 2 4 3 3 1 1 3 3 1 3 5 4 1 0 2 3 2 3 5 5 5 4 3 3 3 3 2 1 1 0
-1 -0 0 1 1 1 1 1 1 1 2 2 0 -0 0 -0 0 1 2 2 3 3 3 3 1 3 3 2 1 2 2 2 3 2 4 2 -0 -0 1 2 3 3 3 3 3 3 2 2 2 1 1 0 -0 -0
-1 -0 1 0 1 1 1 1 1 1 2 1 0 1 -0 1 1 1 2 3 3 3 2 3 2 3 1 1 1 1 1 2 4 4 2 -0 -0 0 0 0 1 1 2 2 2 1 1 1 1 1 -0 -0 -1 -1
-1 -0 1 1 1 1 1 1 1 1 1 0 -0 0 0 0 0 -0 1 2 2 2 3 4 2 2 2 2 2 3 3 4 4 1 -1 -1 -1 -1 -0 0 1 1 1 0 0 1 1 0 0 0 -0 -1 -1 -2
-1 -1 1 1 1 1 1 0 1 1 1 -0 -0 0 0 1 1 0 1 2 2 3 3 2 3 3 1 2 3 2 3 1 -1 -2 -1 0 0 0 1 0 -1 -1 -1 -1 -0 -0 0 0 0 -1 -1 -2 -2 -3
-1 -0 0 0 0 -0 0 1 -0 -1 -2 -1 -0 -1 0 0 1 1 2 2 2 3 3 2 2 1 2 3 2 -1 -2 -2 -2 -1 -1 -0 -0 -0 -0 -1 -1 -1 -0 -0 -0 -0 -1 -1 -1 -1 -1 -1 -2 -2
-0 -0 0 0 0 0 0 -0 -1 -2 -2 -2 -2 -2 -1 -1 -0 0 2 1 2 2 1 1 2 1 1 -1 -1 -2 -2 -2 -2 -2 -2 -2 -1 -1 -1 -1 -1 -1 -1 -1 -1 -1 -2 -2 -2 -2 -2 -2 -3 -3
-1 -1 0 0 1 0 -1 -1 -1 -2 -3 -3 -2 -2 -2 -2 -1 -1 -0 -0 -0 -0 -1 -1 -1 -2 -1 -1 -1 -2 -1 -1 -1 -3 -3 -2 -2 -2 -2 -2 -2 -2 -2 -2 -3 -2 -2 -2 -2 -3 -3 -3 -3 -4
-1 -1 -1 -0 -1 -1 -2 -2 -2 -3 -3 -3 -3 -3 -3 -2 -2 -2 -1 -1 -1 -2 -2 -2 -3 -2 -1 -1 -1 -1 -2 -1 -2 -2 -2 -3 -2 -2 -2 -2 -3 -3 -3 -2 -2 -2 -2 -2 -3 -3 -3 -4 -4 -4
-1 -0 -0 -0 -2 -1 -2 -2 -2 -2 -3 -3 -3 -3 -3 -3 -3 -3 -2 -3 -4 -4 -2 -3 -3 -2 -1 -1 -1 -0 -1 -1 -1 -2 -2 -2 -3 -3 -3 -3 -2 -2 -2 -2 -2 -2 -3 -3 -3 -4 -4 -4 -4 -4
-2 -1 -2 -2 -2 -2 -3 -2 -1 -2 -2 -3 -3 -3 -3 -3 -3 -3 -3 -4 -4 -3 -2 -2 -1 -1 -1 -2 -1 -1 -1 -1 -2 -2 -2 -2 -2 -2 -2 -2 -3 -2 -3 -3 -2 -2 -2 -3 -3 -5 -5 -4 -4 -4
0 -2 -3 -4 -3 -5 -3 -2 -1 -2 -1 -2 -2 -3 -2 -3 -3 -3 -3 -4 -4 -2 -1 -2 -1 -1 -2 -1 -1 -2 -2 -1 -2 -2 -2 -2 -2 -3 -3 -3 -4 -4 -4 -3 -3 -3 -3 -3 -4 -5 -4 -4 -4 -4
0 -5 -3 -6 -4 -5 -5 -4 -3 -2 -3 -4 -3 -3 -4 -2 -3 -4 -3 -4 -3 -2 -1 -1 -1 -1 -1 -2 -2 -2 -2 -2 -2 -2 -3 -3 -2 -3 -4 -4 -5 -5 -5 -5 -5 -5 -4 -4 -4 -4 -4 -4 -4 -4
-8 -6 -6 -6 -5 -4 -4 -5 -4 -4 -4 -4 -4 -4 -4 -4 -4 -4 -3 -3 -3 -2 -1 -1 -1 -1 -2 -2 -2 -3 -3 -3 -2 -2 -3 -4 -3 -3 -3 -5 -6 -6 -7 -7 -6 -6 -5 -5 -5 -5 -5 -4 -4 -4
-8 -8 -6 -6 -5 -4 -5 -4 -4 -5 -5 -5 -5 -7 -7 -7 -6 -4 -4 -3 -2 -2 -1 -1 -1 -1 -2 -3 -3 -3 -4 -4 -3 -3 -4 -4 -4 -4 -4 -4 -4 -5 -5 -5 -5 -5 -5 -5 -5 -5 -6 -5 -5 -5
-7 -7 -7 -8 -7 -7 -8 -7 -6 -6 -5 -6 -6 -7 -7 -7 -5 -5 -3 -2 -2 -2 -2 -2 -2 -2 -3 -3 -3 -4 -4 -4 -4 -4 -5 -5 -5 -4 -4 -4 -4 -4 -4 -4 -4 -4 -4 -5 -6 -6 -7 -6 -7 -6
-8 -7 -7 -11 -8 -7 -7 -8 -7 -7 -6 -5 -8 -6 -6 -7 -7 -5 -3 -2 -2 -2 -2 -3 -4 -4 -4 -4 -4 -5 -5 -5 -5 -5 -5 -5 -5 -5 -4 -4 -4 -4 -4 -4 -4 -5 -7 -7 -7 -7 -7 -8 -8 -7
-8 -8 -8 -9 -9 -8 -9 -9 -8 -7 -6 -6 -7 -7 -8 -8 -6 -3 -3 -3 -3 -3 -3 -3 -4 -4 -4 -4 -5 -5 -5 -5 -5 -5 -5 -5 -5 -5 -5 -5 -5 -4 -5 -4 -4 -7 -8 -8 -8 -8 -8 -8 -8 -8
-8 -7 -8 -8 -8 -9 -8 -8 -7 -6 -6 -7 -7 -8 -8 -7 -7 -5 -4 -4 -4 -4 -4 -4 -5 -5 -5 -5 -5 -5 -6 -6 -6 -6 -6 -6 -7 -7 -7 -6 -5 -5 -5 -6 -7 -7 -9 -9 -9 -9 -8 -8 -8 -7
-8 -8 -8 -10 -9 -8 -7 -7 -7 -7 -7 -6 -7 -6 -6 -5 -7 -6 -5 -5 -4 -5 -5 -5 -5 -5 -6 -6 -6 -6 -6 -6 -7 -7 -8 -9 -10 -9 -8 -7 -6 -6 -6 -6 -6 -6 -7 -7 -7 -7 -7 -7 -7 -7
-8 -6 -7 -7 -7 -7 -7 -6 -6 -7 -7 -7 -7 -7 -6 -7 -7 -6 -6 -6 -6 -5 -6 -6 -6 -6 -6 -7 -7 -7 -7 -7 -8 -8 -8 -8 -8 -8 -7 -7 -7 -7 -7 -6 -6 -7 -7 -7 -7 -7 -7 -7 -7 -7
Height
1386 1394 1400 1407 1413 1419 1425 1431 1438 1444 1450 1456 1462 1467 1472 1478 1482 1486 1490 1493 1497 1500 1502 1504 1506 1509 1510 1512 1512 1511 1509 1506 1510 1512 1512 1513 1512 1508 1505 1505 1511 1519 1515 1513 1515 1514 1506 1495 1499 1503 1501 1501 1499 1502
1382 1390 1397 1403 1410 1415 1421 1427 1434 1441 1447 1454 1460 1465 1471 1476 1480 1485 1489 1492 1496 1501 1502 1503 1504 1506 1508 1509 1511 1511 1509 1509 1508 1508 1508 1507 1508 1510 1511 1508 1510 1515 1512 1513 1510 1501 1498 1498 1495 1494 1498 1502 1500 1500
1378 1386 1393 1400 1406 1412 1418 1424 1430 1438 1444 1451 1457 1463 1469 1475 1479 1484 1488 1492 1496 1498 1500 1501 1500 1503 1503 1505 1507 1510 1507 1507 1508 1508 1507 1507 1509 1510 1515 1510 1507 1503 1504 1509 1511 1499 1496 1497 1497 1498 1499 1500 1500 1502
1374 1382 1389 1396 1403 1409 1415 1421 1427 1434 1442 1449 1455 1462 1469 1474 1479 1483 1487 1491 1496 1499 1499 1496 1495 1496 1498 1500 1502 1505 1506 1506 1506 1507 1506 1505 1506 1507 1512 1517 1518 1502 1500 1502 1504 1502 1500 1500 1500 1500 1500 1501 1502 1504
1370 1378 1386 1393 1400 1406 1412 1418 1424 1431 1438 1446 1454 1461 1468 1474 1479 1484 1487 1490 1493 1498 1496 1494 1494 1493 1494 1496 1497 1499 1501 1503 1503 1504 1504 1501 1499 1505 1511 1512 1512 1505 1496 1498 1498 1493 1494 1495 1498 1500 1500 1501 1503 1506
1366 1375 1382 1389 1397 1403 1409 1415 1422 1428 1435 1444 1452 1460 1467 1473 1478 1483 1487 1490 1490 1494 1496 1495 1492 1491 1491 1492 1493 1494 1495 1499 1501 1498 1498 1498 1498 1501 1505 1507 1494 1497 1500 1497 1492 1491 1494 1496 1498 1499 1502 1502 1504 1506
1364 1372 1379 1386 1393 1399 1405 1411 1418 1426 1434 1442 1451 1459 1466 1473 1477 1481 1485 1486 1487 1493 1496 1494 1489 1489 1489 1490 1491 1491 1491 1494 1496 1495 1495 1495 1496 1498 1503 1501 1497 1496 1496 1496 1495 1495 1496 1495 1497 1499 1502 1503 1505 1508
1361 1369 1376 1382 1388 1394 1400 1407 1415 1424 1433 1441 1451 1459 1467 1473 1478 1482 1483 1484 1486 1492 1494 1493 1489 1488 1487 1487 1489 1490 1491 1492 1492 1492 1493 1492 1496 1496 1498 1491 1493 1494 1497 1503 1499 1495 1496 1497 1498 1501 1505 1505 1506 1511
1358 1365 1371 1378 1384 1391 1397 1406 1414 1423 1433 1442 1452 1460 1469 1473 1476 1481 1485 1485 1487 1492 1489 1489 1488 1486 1486 1486 1488 1489 1489 1491 1491 1490 1489 1490 1494 1492 1484 1485 1490 1495 1497 1499 1499 1499 1498 1499 1500 1501 1504 1506 1508 1512
1354 1360 1367 1373 1380 1388 1396 1404 1413 1422 1431 1443 1453 1458 1463 1467 1476 1482 1487 1488 1486 1484 1485 1484 1485 1485 1485 1486 1489 1490 1489 1491 1490 1491 1490 1489 1485 1484 1483 1484 1484 1492 1496 1496 1494 1498 1501 1501 1501 1503 1504 1507 1510 1512
1350 1356 1361 1368 1376 1385 1393 1401 1411 1421 1432 1437 1444 1453 1460 1468 1477 1482 1482 1484 1483 1481 1477 1477 1480 1483 1485 1487 1491 1493 1492 1492 1489 1489 1488 1484 1480 1481 1482 1483 1486 1491 1494 1496 1494 1497 1500 1502 1502 1504 1507 1510 1512 1515
1347 1352 1359 1366 1373 1381 1390 1398 1407 1415 1422 1433 1438 1450 1458 1468 1473 1475 1477 1477 1475 1471 1470 1472 1475 1478 1482 1486 1489 1492 1491 1492 1483 1488 1486 1481 1477 1477 1480 1483 1486 1490 1494 1495 1497 1497 1501 1503 1504 1507 1510 1511 1513 1518
1344 1351 1356 1363 1371 1379 1388 1396 1406 1415 1424 1436 1446 1450 1453 1463 1465 1464 1466 1463 1463 1462 1465 1467 1473 1475 1481 1485 1488 1490 1488 1488 1490 1487 1478 1473 1476 1478 1481 1484 1489 1491 1492 1495 1496 1498 1501 1504 1505 1508 1513 1515 1516 1518
1344 1350 1357 1363 1371 1379 1388 1396 1407 1414 1425 1434 1440 1449 1450 1452 1449 1445 1445 1446 1449 1451 1455 1462 1468 1471 1476 1481 1484 1486 1487 1487 1486 1487 1472 1471 1473 1477 1481 1483 1487 1491 1493 1495 1495 1500 1502 1506 1509 1510 1514 1518 1517 1519
1344 1351 1358 1365 1371 1381 1390 1401 1407 1416 1423 1429 1434 1434 1439 1436 1437 1438 1441 1443 1445 1448 1452 1460 1466 1470 1475 1479 1481 1484 1486 1481 1474 1467 1468 1470 1474 1479 1483 1486 1488 1490 1493 1495 1499 1502 1505 1508 1511 1512 1515 1518 1518 1521
1345 1353 1358 1366 1374 1384 1394 1402 1410 1418 1424 1428 1431 1433 1433 1435 1437 1438 1439 1442 1443 1448 1455 1459 1464 1470 1469 1470 1474 1470 1470 1463 1463 1469 1471 1473 1477 1483 1483 1486 1489 1492 1494 1498 1501 1504 1507 1510 1512 1513 1514 1517 1519 1520
1346 1350 1357 1366 1375 1388 1396 1403 1411 1419 1424 1425 1428 1430 1432 1434 1436 1437 1438 1441 1443 1451 1451 1456 1459 1460 1465 1463 1462 1463 1461 1465 1467 1469 1472 1477 1480 1483 1486 1487 1491 1494 1497 1500 1503 1506 1509 1511 1512 1514 1516 1517 1518 1519
1348 1355 1363 1371 1377 1386 1396 1404 1411 1417 1422 1426 1428 1431 1433 1433 1433 1434 1436 1440 1445 1447 1451 1453 1454 1457 1456 1454 1457 1462 1465 1466 1469 1471 1475 1480 1484 1486 1488 1491 1494 1498 1501 1503 1506 1508 1511 1512 1514 1515 1516 1516 1517 1518
1349 1359 1367 1375 1381 1389 1400 1408 1413 1420 1425 1427 1429 1431 1432 1432 1433 1435 1436 1441 1444 1446 1450 1451 1453 1454 1455 1456 1458 1461 1464 1466 1469 1476 1480 1485 1488 1490 1493 1496 1499 1501 1504 1507 1509 1511 1512 1513 1514 1514 1516 1517 1518 1519
1356 1365 1372 1381 1389 1394 1405 1412 1416 1420 1426 1429 1430 1433 1434 1435 1436 1436 1437 1439 1441 1445 1448 1451 1454 1455 1455 1456 1459 1461 1464 1468 1470 1476 1484 1489 1493 1495 1498 1500 1502 1505 1507 1510 1512 1513 1513 1514 1515 1516 1517 1519 1520 1520
1362 1371 1379 1384 1390 1398 1407 1414 1420 1423 1426 1430 1432 1433 1436 1437 1438 1438 1439 1439 1441 1447 1451 1453 1454 1454 1456 1459 1462 1466 1470 1472 1475 1478 1484 1490 1496 1499 1502 1505 1507 1509 1511 1512 1513 1514 1515 1516 1517 1518 1519 1520 1521 1521
1371 1379 1384 1389 1396 1404 1411 1415 1417 1422 1427 1432 1434 1436 1438 1440 1441 1441 1442 1443 1448 1451 1452 1455 1456 1456 1460 1465 1469 1472 1475 1478 1481 1486 1492 1495 1499 1502 1505 1508 1510 1511 1512 1513 1515 1515 1516 1517 1518 1519 1520 1521 1521 1521
1380 1384 1389 1396 1402 1410 1421 1418 1420 1425 1431 1435 1438 1440 1443 1445 1445 1445 1448 1452 1454 1456 1456 1457 1459 1464 1466 1471 1475 1479 1482 1485 1489 1493 1497 1500 1503 1505 1507 1509 1511 1512 1513 1513 1513 1514 1516 1517 1519 1520 1521 1521 1521 1522
1382 1386 1393 1399 1406 1415 1418 1420 1422 1426 1432 1437 1440 1445 1447 1448 1449 1451 1456 1459 1461 1462 1463 1465 1467 1470 1475 1479 1481 1485 1489 1492 1494 1497 1501 1503 1504 1507 1509 1510 1511 1512 1511 1511 1513 1513 1516 1518 1520 1521 1522 1522 1522 1522
1388 1402 1403 1407 1410 1414 1419 1421 1424 1427 1434 1438 1442 1447 1448 1449 1453 1458 1461 1464 1465 1467 1469 1471 1474 1477 1478 1482 1486 1490 1493 1496 1497 1500 1503 1506 1506 1508 1509 1510 1511 1511 1513 1514 1515 1515 1516 1518 1519 1520 1521 1521 1521 1521
1397 1405 1405 1407 1411 1412 1419 1423 1423 1428 1432 1438 1444 1447 1448 1451 1458 1461 1461 1463 1466 1469 1472 1475 1476 1479 1483 1487 1489 1493 1496 1499 1501 1502 1505 1507 1508 1509 1509 1509 1510 1513 1514 1515 1516 1517 1517 1518 1519 1519 1519 1519 1520 1520
1403 1407 1407 1408 1409 1410 1416 1421 1423 1427 1433 1438 1442 1446 1450 1459 1460 1460 1461 1464 1467 1471 1475 1478 1481 1483 1486 1490 1493 1497 1499 1502 1504 1505 1507 1508 1509 1510 1511 1511 1512 1513 1514 1514 1515 1516 1517 1517 1518 1519 1519 1519 1519 1518
1406 1407 1408 1412 1411 1413 1417 1423 1427 1431 1433 1436 1440 1446 1449 1453 1454 1457 1459 1464 1469 1473 1477 1480 1484 1487 1490 1493 1496 1498 1501 1503 1504 1506 1508 1509 1510 1511 1512 1512 1513 1514 1514 1514 1515 1515 1516 1516 1517 1518 1518 1518 1517 1516
1410 1411 1412 1416 1416 1419 1426 1430 1431 1432 1432 1433 1437 1443 1447 1449 1452 1455 1460 1465 1470 1474 1478 1481 1486 1489 1492 1495 1498 1500 1502 1504 1506 1507 1508 1509 1510 1512 1512 1513 1513 1514 1514 1514 1515 1515 1516 1517 1517 1517 1517 1517 1516 1516
1414 1414 1415 1420 1424 1429 1431 1431 1431 1430 1431 1432 1435 1441 1447 1452 1456 1461 1465 1469 1472 1476 1480 1485 1488 1491 1493 1495 1497 1500 1502 1504 1505 1507 1508 1509 1510 1511 1512 1512 1513 1513 1514 1514 1514 1515 1516 1516 1517 1517 1517 1516 1516 1516
1415 1415 1419 1425 1432 1436 1435 1434 1434 1434 1435 1437 1441 1444 1448 1455 1461 1466 1470 1473 1476 1480 1483 1486 1490 1493 1495 1497 1499 1500 1502 1503 1504 1504 1505 1506 1506 1507 1508 1510 1511 1511 1512 1513 1513 1514 1515 1516 1516 1516 1516 1516 1516 1516
1417 1419 1423 1430 1435 1436 1437 1438 1440 1443 1446 1449 1452 1455 1458 1460 1465 1470 1472 1476 1479 1482 1486 1488 1491 1493 1495 1497 1498 1499 1500 1500 1500 1501 1501 1502 1503 1503 1504 1506 1508 1509 1510 1511 1512 1512 1513 1515 1516 1516 1516 1516 1516 1516
1426 1426 1429 1432 1435 1438 1441 1442 1447 1453 1455 1458 1460 1461 1462 1464 1468 1472 1474 1477 1481 1484 1486 1488 1491 1492 1494 1495 1495 1496 1496 1497 1498 1499 1500 1501 1502 1503 1504 1506 1507 1508 1509 1510 1511 1512 1513 1514 1515 1516 1516 1516 1516 1516
Wind_Speed
28 33 29 26 25 26 30 29 28 28 26 25 26 25 21 19 18 16 16 17 12 5 5 7 7 3 2 2 0 5 0 1 2 2 3 4 3 4 4 6 8 3 3 1 2 1 4 4 5 5 2 5 14 15
30 33 30 26 25 24 25 30 31 29 28 26 25 24 23 21 19 16 11 12 12 9 3 8 13 14 13 11 4 3 3 3 2 0 2 2 1 1 1 3 2 5 3 3 3 2 1 11 2 6 11 13 15 17
32 33 30 27 25 24 23 25 30 30 29 28 25 24 21 19 17 17 13 12 14 4 6 16 19 17 17 10 8 4 3 3 3 5 1 1 3 3 0 4 3 3 6 3 6 4 4 10 5 9 9 11 14 13
32 34 30 27 25 24 23 23 26 31 31 30 27 24 22 19 18 16 13 12 13 5 4 5 8 9 13 18 17 13 14 17 17 13 2 2 3 4 2 2 5 3 7 6 4 5 3 8 8 10 10 11 14 13
34 33 30 28 26 24 23 23 25 28 32 31 29 25 23 22 19 18 14 13 16 6 2 3 8 9 15 14 14 15 17 18 10 3 2 2 5 4 2 4 5 4 3 4 4 6 4 9 14 12 14 15 14 15
34 33 30 27 25 25 24 24 26 27 30 32 30 27 24 23 21 17 7 13 17 16 2 2 3 5 8 10 15 18 18 18 9 6 4 4 4 3 3 4 9 15 10 8 2 12 6 15 16 14 14 17 17 14
33 32 29 27 26 25 25 26 28 27 29 30 32 28 25 24 23 14 5 6 18 15 2 3 4 1 3 5 5 6 10 10 9 5 5 5 4 7 2 2 1 2 2 4 9 13 11 15 10 16 17 19 16 14
32 29 27 25 24 24 24 25 26 26 27 30 32 29 25 23 21 20 3 5 17 11 5 1 2 3 4 4 4 4 7 8 5 4 5 4 6 2 2 7 5 8 9 6 5 4 8 9 16 17 16 16 14 13
31 28 27 27 26 26 26 30 28 28 29 32 33 28 23 22 15 19 9 11 19 7 4 5 3 2 3 2 2 2 3 1 2 2 2 5 3 4 7 17 13 14 11 6 10 12 15 18 18 17 14 13 11 15
29 28 28 29 29 30 30 30 32 32 33 37 35 27 8 16 15 18 10 4 10 6 7 5 5 2 2 2 4 3 3 1 1 1 4 2 3 4 9 12 18 15 15 16 18 16 14 14 14 13 13 14 9 14
27 27 25 31 32 34 31 33 36 39 44 44 15 9 21 29 16 10 5 6 6 3 7 7 13 4 4 3 2 2 0 1 2 2 3 2 2 6 10 13 16 15 14 9 10 7 6 4 11 15 15 12 11 14
23 24 29 31 34 36 36 39 44 52 37 29 18 33 24 9 5 4 4 4 5 5 9 8 8 6 7 5 4 2 2 0 4 3 2 2 2 8 15 15 16 16 14 10 8 7 5 8 12 13 13 12 14 14
28 32 26 30 36 34 42 44 54 40 39 33 19 6 7 5 4 8 8 5 5 8 11 14 5 7 6 4 4 2 3 4 2 2 3 2 7 14 16 17 15 14 12 11 10 9 12 14 15 13 13 14 14 13
28 27 31 30 38 42 48 55 48 47 44 8 8 6 5 5 6 5 4 5 9 13 27 24 7 5 5 3 4 3 1 2 2 2 5 4 15 19 20 18 16 14 12 11 12 13 15 16 16 16 13 12 11 10
30 29 34 33 43 48 52 52 45 43 16 5 5 4 6 4 4 6 9 7 11 23 30 17 8 5 2 3 2 3 3 4 5 4 1 12 23 23 19 17 15 13 13 14 15 16 17 16 15 15 13 11 9 8
34 33 28 42 45 51 54 48 38 26 6 5 4 4 4 4 3 4 13 9 15 26 21 7 4 3 3 3 5 7 6 5 2 2 12 21 22 20 19 17 14 14 16 17 17 17 17 15 14 12 10 9 9 8
36 25 36 39 53 57 48 38 22 6 4 3 2 5 8 1 4 6 10 9 15 24 3 4 5 5 4 3 4 3 2 2 11 17 21 24 24 20 17 18 18 18 19 18 17 15 13 11 10 9 8 6 6 7
21 39 42 44 56 40 33 18 5 5 3 4 3 5 8 5 7 8 8 18 18 17 7 2 5 3 4 5 3 4 7 18 20 25 25 22 20 20 21 22 20 18 17 16 14 13 11 9 7 5 4 3 3 5
39 45 46 55 48 31 6 4 5 5 4 5 6 8 7 8 7 9 16 21 13 16 13 4 2 1 2 2 9 18 22 25 30 26 23 22 23 25 24 22 21 19 17 15 14 12 11 10 8 7 5 4 3 1
50 48 53 43 34 8 6 5 6 6 3 3 6 6 7 8 14 17 20 21 18 7 4 2 1 1 2 13 23 28 33 33 34 33 28 23 21 21 20 18 17 17 17 16 14 13 12 10 8 6 5 4 4 4
57 38 34 29 22 10 7 5 5 5 6 6 6 5 6 13 9 8 10 7 7 4 3 4 9 16 20 24 28 31 30 29 28 31 33 27 22 22 22 20 19 17 17 15 14 13 11 9 7 7 6 4 2 0
36 37 27 15 7 5 7 7 9 7 5 5 5 6 6 4 5 8 6 9 5 6 5 15 21 24 26 26 27 24 23 24 27 30 28 27 26 23 21 18 15 14 11 9 7 6 6 5 5 4 1 1 1 1
23 16 10 6 6 5 3 4 4 4 3 3 3 3 4 3 5 6 5 6 6 15 21 24 26 26 29 27 26 27 29 31 31 28 25 23 20 17 14 12 9 7 5 4 3 3 4 3 1 3 3 2 2 2
13 7 6 5 6 4 5 3 4 5 6 3 2 3 2 2 2 5 3 4 9 19 28 30 32 34 33 31 30 27 25 23 25 22 19 16 14 12 9 9 8 8 7 5 3 4 8 6 6 3 1 2 3 4
6 6 4 4 4 4 3 2 2 3 3 2 3 2 1 2 3 3 2 4 18 26 27 27 27 28 30 28 26 23 20 17 17 16 12 8 10 11 10 9 10 9 8 7 9 8 7 5 7 3 3 5 4 2
6 6 3 2 2 4 4 3 3 4 3 3 3 4 3 3 3 3 4 15 23 24 24 23 24 26 25 23 23 20 16 11 10 13 14 11 8 6 7 8 9 8 7 6 6 7 7 5 3 2 2 3 3 4
4 2 4 5 4 7 6 6 7 6 3 3 3 3 3 3 3 3 16 21 24 24 22 19 17 19 24 23 20 18 17 13 9 11 12 10 8 7 7 6 6 6 6 5 5 5 4 3 2 2 2 1 3 4
5 5 3 5 7 6 4 3 3 2 3 5 6 3 4 5 3 8 14 24 24 22 20 18 17 19 20 20 18 17 15 11 10 10 10 9 7 5 4 4 4 4 3 3 2 2 3 3 3 3 3 2 3 4
6 4 5 6 6 9 8 3 1 2 4 3 4 3 4 4 10 18 26 23 23 22 22 23 23 20 19 18 15 13 12 11 10 11 8 8 7 5 4 3 3 2 2 2 2 2 4 5 5 5 5 4 4 4
5 5 5 5 4 4 6 3 3 8 10 10 9 15 19 19 22 25 23 21 22 23 23 21 19 17 17 16 18 17 14 11 8 6 5 4 4 4 3 3 3 2 2 2 2 4 5 5 5 5 3 4 3 3
4 4 6 6 5 8 18 23 21 19 22 24 24 24 22 20 22 22 21 20 20 21 22 21 18 15 14 13 12 11 9 8 8 9 10 10 11 12 12 9 7 6 4 3 4 6 6 5 4 4 3 4 5 7
6 6 6 4 5 11 16 15 14 17 19 21 17 18 21 19 9 11 22 21 19 19 18 16 15 15 13 11 9 9 9 10 11 8 6 8 9 9 9 9 9 8 7 5 5 4 6 6 5 5 5 6 6 6
16 23 17 9 4 4 5 6 6 6 9 7 7 9 8 4 5 7 19 20 18 16 15 14 12 10 10 10 10 9 7 8 8 7 7 8 7 7 7 7 7 7 7 7 7 7 6 5 5 4 4 2 1 1
Wind_Direction
202 196 196 201 201 199 200 201 200 198 194 191 193 195 193 195 197 202 206 204 202 185 183 210 233 247 49 41 360 338 359 240 77 178 185 194 198 223 186 163 152 287 303 234 141 9 288 139 104 137 229 178 163 164
200 196 196 198 201 199 199 201 200 199 196 193 194 197 199 199 201 200 202 201 196 209 221 232 242 253 259 260 271 257 273 313 346 159 223 135 116 25 6 222 326 190 223 307 233 239 34 205 160 202 189 178 172 168
198 195 197 198 201 202 200 200 200 199 197 195 194 195 194 194 191 202 194 201 190 212 264 252 251 258 263 264 254 227 247 240 100 7 277 198 105 139 203 255 257 234 146 151 13 328 325 223 255 202 193 183 167 167
196 195 197 198 201 204 204 201 199 199 197 196 194 194 191 184 190 195 186 195 193 169 209 259 240 240 254 255 256 249 254 263 284 310 275 173 138 182 132 349 280 269 149 158 211 259 286 232 231 190 167 153 156 152
195 195 197 198 202 205 206 203 200 199 196 195 193 191 187 183 185 184 195 190 193 194 214 285 307 264 244 244 252 257 249 250 264 224 197 227 128 141 92 108 266 273 206 169 225 202 166 205 192 179 165 154 151 160
194 195 197 200 204 208 209 207 202 198 196 193 191 188 183 183 177 181 188 208 201 207 260 310 280 246 225 245 252 244 244 240 224 203 203 157 140 119 141 206 224 241 274 261 283 163 204 169 168 166 164 155 148 143
195 197 201 207 212 217 214 208 200 197 194 190 188 182 182 184 182 167 180 179 202 209 226 272 297 214 219 222 229 211 204 205 213 206 193 162 141 143 121 230 77 227 267 226 171 146 138 149 162 164 162 147 142 139
195 198 204 209 213 208 201 192 185 185 188 185 179 176 178 181 185 182 124 170 154 163 193 210 263 304 183 177 178 174 177 188 190 187 169 129 130 106 238 229 179 149 136 167 167 189 170 158 146 147 149 145 143 143
198 204 210 212 207 197 188 176 178 176 179 174 168 165 168 181 185 192 204 172 171 189 204 181 201 215 152 111 85 131 179 130 174 191 185 160 153 210 236 176 172 170 169 156 124 125 136 148 145 142 145 142 155 156
203 209 216 216 196 183 176 176 177 170 166 161 158 156 173 173 173 184 184 204 205 222 222 197 199 192 139 76 49 14 10 59 16 315 151 182 234 216 187 181 176 181 172 158 145 133 143 148 153 160 164 157 161 167
204 207 203 184 185 180 177 177 172 166 160 160 157 146 149 147 158 172 175 185 206 234 207 190 185 143 149 111 132 38 303 90 206 194 224 222 251 191 180 168 170 168 163 164 136 130 149 172 179 168 157 153 156 165
192 189 179 184 182 180 177 175 171 164 167 167 151 136 126 136 157 159 187 192 199 223 175 165 176 143 131 136 119 169 187 103 223 166 169 236 237 167 166 158 158 161 163 153 144 141 163 166 163 158 155 154 154 155
185 177 185 178 180 177 170 171 167 162 153 139 136 147 120 161 168 190 187 198 195 174 160 166 149 146 127 138 100 167 175 216 140 193 228 244 153 161 158 156 154 156 155 159 147 181 161 155 150 152 154 151 153 156
183 168 176 175 172 170 165 167 160 143 147 135 148 147 197 181 217 194 186 166 189 174 169 159 118 136 132 123 132 189 164 171 169 236 230 180 166 164 161 155 159 154 155 151 143 151 152 155 153 149 151 156 155 158
174 163 171 173 173 163 169 158 150 156 152 124 149 191 184 195 190 202 195 175 177 179 159 149 107 120 115 123 186 132 170 226 216 229 133 152 167 162 155 152 149 145 144 142 148 150 151 153 154 152 152 157 161 174
168 163 165 171 173 165 161 157 154 149 113 149 140 137 123 124 226 212 194 187 174 166 151 152 113 143 186 164 168 209 177 215 176 120 140 158 153 154 148 142 140 138 139 143 145 147 148 152 155 154 158 172 184 191
164 170 157 168 158 161 153 144 131 125 175 112 103 174 176 180 225 198 184 174 168 155 173 138 162 181 126 187 206 197 199 118 131 132 151 153 151 145 144 141 137 136 137 140 145 150 153 155 158 162 174 186 202 211
166 162 157 157 156 144 137 136 107 106 103 107 148 139 171 164 165 172 176 171 165 182 164 127 137 165 190 180 187 151 123 129 138 142 143 145 143 141 139 135 131 131 131 131 133 135 139 142 145 148 154 165 187 201
163 152 157 160 151 139 105 90 84 94 76 97 97 119 122 120 144 168 169 168 175 161 136 124 107 153 172 129 128 134 134 130 129 130 128 131 132 130 128 125 122 121 122 122 124 129 127 119 108 99 94 89 73 73
148 152 155 148 150 104 92 84 92 90 87 88 99 88 97 98 109 119 140 148 141 116 77 67 96 152 136 137 148 145 144 144 136 124 124 126 129 131 128 126 123 123 122 119 112 103 98 100 93 89 90 90 81 72
143 132 138 142 80 77 90 110 94 101 101 82 78 85 78 93 85 74 65 92 74 53 97 83 129 126 141 148 148 145 142 145 135 139 137 130 132 133 129 126 123 122 120 116 109 103 96 94 95 85 84 84 101 124
132 153 142 113 74 74 68 48 102 100 75 87 51 56 56 39 34 23 47 51 64 40 89 121 129 137 138 141 144 145 142 141 137 133 134 134 134 134 132 130 133 126 121 118 121 125 115 104 96 89 92 213 231 288
117 110 84 78 82 67 77 58 79 81 91 87 53 51 39 45 21 30 68 44 68 105 126 126 126 128 126 128 130 127 129 130 129 130 133 134 134 134 135 137 143 144 145 152 159 174 185 174 162 117 69 24 278 267
86 56 47 61 69 97 101 71 94 99 107 100 85 91 70 76 53 56 63 41 97 125 127 128 128 125 126 128 128 130 133 134 129 129 132 135 136 136 138 127 119 112 94 82 87 173 187 176 173 126 75 4 5 333
108 29 79 57 88 97 81 61 74 84 101 91 93 93 89 71 73 64 87 137 143 140 140 139 139 138 135 131 131 131 136 142 140 135 127 137 142 131 122 124 116 108 98 92 90 101 123 154 159 217 269 278 273 311
79 33 62 121 120 109 150 127 136 113 108 93 97 120 95 80 75 135 169 162 156 154 155 153 149 144 139 140 137 138 137 144 155 153 136 132 127 120 122 127 128 127 120 117 120 114 114 120 124 182 211 258 278 278
77 31 70 54 106 116 100 80 88 89 96 125 139 116 101 99 145 171 154 160 160 158 156 154 156 154 146 143 144 143 141 142 152 145 139 137 135 130 118 109 122 136 141 134 135 154 155 162 152 127 119 276 266 268
65 40 81 18 65 51 100 72 74 101 129 142 122 85 121 152 135 161 158 157 159 157 155 155 158 158 153 153 154 153 150 152 149 146 145 143 141 142 147 148 133 125 131 143 141 131 123 129 135 94 79 57 25 28
51 58 88 40 58 52 45 65 122 119 138 134 114 121 112 97 132 141 148 157 160 161 158 154 151 155 154 154 154 154 149 148 152 148 148 142 143 142 143 143 136 135 122 125 138 130 116 110 111 106 94 68 59 53
42 32 92 59 57 52 20 38 87 112 105 100 108 116 106 107 126 134 140 151 160 161 158 160 158 163 163 164 157 156 159 163 167 172 186 206 227 234 228 219 194 182 169 175 158 127 127 122 117 118 104 90 77 62
51 67 75 69 85 88 89 90 92 102 106 104 119 114 117 118 127 136 142 146 154 158 160 158 156 160 162 165 169 176 186 206 228 243 249 251 243 229 232 230 218 203 192 172 155 148 153 152 161 147 127 111 93 89
40 64 105 92 91 89 87 77 73 81 89 95 98 108 116 119 90 137 150 153 159 162 165 169 173 176 184 197 214 233 247 252 256 248 227 216 215 218 209 206 198 195 191 179 174 161 146 143 139 131 122 114 106 95
95 100 100 97 95 92 57 83 73 64 54 76 74 101 111 88 126 148 161 165 170 172 175 180 189 202 218 233 244 242 225 209 189 185 179 162 147 145 150 154 156 155 153 145 141 140 139 141 142 137 133 126 91 12